Home > Weather > Germantown > Past weeks

Flag for USA Weather for the Past 2 Weeks in Germantown, Maryland, USA

Now
54 °F

Rain. Low clouds.


Feels Like: 53 °F
Forecast: 55 / 77 °F
Wind: 5 mph from North

Location: Frederick Municipal Airport

Current Time: May 2, 2016 at 2:16:29 AM

Latest Report: May 2, 2016 at 1:00 AM


Visibility: 3 mi

Pressure: 30.03 "Hg

Humidity: 100%

Dew Point: 54 °F

Location of GermantownLocation

Historic Weather in Germantown — Graph

°F

Germantown Temperature Yesterday

Maximum temperature yesterday: 57 °F (at 3:50 PM)
Minimum temperature yesterday: 50 °F (at 12:15 AM)
Average temperature yesterday: 52 °F

High & Low Weather Summary for the Past Weeks

 TemperatureHumidityPressure
High104 °F (Apr 19, 3:50 PM)100% (Apr 17, 12:00 AM)30.51 "Hg (Apr 17, 12:00 AM)
Low34 °F (Apr 20, 6:50 AM)17% (Apr 19, 3:50 PM)29.71 "Hg (Apr 26, 3:55 PM)
Average54 °F81%30.08 "Hg
* Reported Midnight between Apr 16 and Apr 17 — May 2 12:40 AM, Germantown, Weather by CustomWeather, © 2016

Note: Actual official high and low records may vary slightly from our data, if they occured in-between our weather recording intervals... More about our weather records

Advertising

Germantown Weather History for the Previous 24 Hours

Scroll right to see more
 ConditionsComfort  
Time TempWeatherWind HumidityBarometerVisibility
12:40 AM
Mon, May 2
54 °FLight rain. Mostly cloudy.No wind100%30.03 "Hg4 mi
12:00 AM54 °FThundershowers. Mostly cloudy.3 mph100%30.04 "Hg4 mi
11:40 PM
Sun, May 1
54 °FRain. Low clouds.3 mph100%30.05 "Hg3 mi
11:00 PM54 °FLow clouds.No wind100%30.07 "Hg7 mi
10:20 PM54 °FMostly cloudy.No wind100%30.06 "Hg10 mi
10:00 PM54 °FThundershowers. Overcast.No wind100%30.05 "Hg10 mi
9:20 PM54 °FMostly cloudy.No wind100%30.04 "Hg10 mi
9:00 PM54 °FMostly cloudy.No wind100%30.07 "Hg7 mi
7:55 PM55 °FFog.6 mph100%30.06 "Hg3 mi
5:47 PM57 °FLow clouds.6 mph100%30.03 "Hg7 mi
4:48 PM57 °FLow clouds.6 mph100%30.04 "Hg7 mi
3:50 PM57 °FLow clouds.6 mph94%30.05 "Hg10 mi
2:50 PM55 °FLow clouds.6 mph100%30.07 "Hg10 mi
12:55 PM55 °FLow clouds.8 mph100%30.09 "Hg7 mi
11:48 AM54 °FLow clouds.8 mph100%30.10 "Hg7 mi
10:48 AM54 °FLight rain. Low clouds.6 mph100%30.11 "Hg5 mi
9:55 AM52 °FRain. Low clouds.6 mph100%30.12 "Hg5 mi
8:48 AM52 °FFog.5 mph100%30.13 "Hg5 mi
7:47 AM52 °FRain. Overcast.3 mph100%30.14 "Hg5 mi
6:50 AM52 °FDrizzle. Overcast.5 mph100%30.13 "Hg5 mi
6:15 AM50 °FLight rain. Overcast.6 mph100%30.13 "Hg10 mi
6:00 AM50 °FLight rain. Mostly cloudy.6 mph100%30.13 "Hg7 mi
5:40 AM50 °FRain. Overcast.8 mph100%30.13 "Hg7 mi
5:20 AM50 °FLight rain. Mostly cloudy.3 mph100%30.13 "Hg7 mi
5:00 AM50 °FDrizzle. Mostly cloudy.7 mph100%30.13 "Hg10 mi
4:40 AM52 °FDrizzle. Mostly cloudy.7 mph100%30.14 "Hg10 mi
4:20 AM52 °FDrizzle. Mostly cloudy.8 mph100%30.14 "Hg10 mi
3:55 AM52 °FLight rain. Overcast.6 mph100%30.15 "Hg7 mi
3:35 AM52 °FLight rain. Overcast.6 mph100%30.15 "Hg7 mi
2:55 AM50 °FDrizzle. Overcast.5 mph100%30.15 "Hg5 mi
2:35 AM50 °FRain. Mostly cloudy.5 mph100%30.17 "Hg5 mi
2:15 AM50 °FDrizzle. Mostly cloudy.5 mph100%30.17 "Hg7 mi
Weather by CustomWeather, © 2016

See weather overviewHow to use our weather pages